Regional Weather Roundup
Issued by NWS

Home | Current Version | Previous Version | Graphics & Text | Print | Product List | Glossary On
Versions: 1 2 3 4 5 6 7 8 9 10 11 12 13 14 15 16 17 18 19 20 21 22 23 24 25 26 27 28 29 30 31 32 33 34 35 36 37 38 39 40 41 42 43 44 45 46 47 48 49 50
000
ASUS43 KLOT 210708
RWRIL

ILLINOIS REGIONAL WEATHER ROUNDUP
NATIONAL WEATHER SERVICE CHICAGO/ROMEOVILLE IL
200 AM CDT TUE APR 21 2015

NOTE: "FAIR" INDICATES FEW OR NO CLOUDS BELOW 12,000 FEET WITH NO
SIGNIFICANT WEATHER AND/OR OBSTRUCTIONS TO VISIBILITY.

* THESE STATIONS ARE NOT UNDER NWS QUALITY CONTROL. THEY ALSO MAY NOT
  REPORT WEATHER SUCH AS PRECIPITATION OR FOG.

ILZ001-002-007-009-015-016-024-210800-
NORTHWEST ILLINOIS

CITY           SKY/WX    TMP DP  RH WIND       PRES   REMARKS
MOLINE         CLEAR     40  30  67 W12       29.68S
STERLING*      PTCLDY    39  30  70 W13       29.64F WCI  32
SAVANNA*       CLEAR     41  31  67 W15G21    29.63S
$$

ILZ003-004-008-010-011-017-018-210800-
NORTH CENTRAL ILLINOIS

CITY           SKY/WX    TMP DP  RH WIND       PRES   REMARKS
ROCKFORD       CLEAR     41  29  62 SW9       29.61F
FREEPORT*      CLEAR     38  30  73 SW10      29.61F WCI  30
ROCHELLE*      CLEAR     37  33  86 W10       29.62F WCI  30
DE KALB*       PTCLDY    38  32  79 W14       29.61F WCI  29
PERU*          CLOUDY    43  34  69 W12       29.66F
$$

ILZ005-006-012>014-019>023-210800-
NORTHEAST ILLINOIS

CITY           SKY/WX    TMP DP  RH WIND       PRES   REMARKS
CHICAGO-OHARE  PTCLDY    42  32  67 W10G21    29.60F
CHICAGO-MIDWAY CLOUDY    44  34  67 SW14      29.61F
AURORA         PTCLDY    41  33  73 SW12      29.62F
LANSING*       CLOUDY    42  32  68 SW10      29.64F
JOLIET*        CLOUDY    45  35  68 SW10G17   29.65S
WAUKEGAN       PTCLDY    39  31  72 SW8       29.56F WCI  33
DUPAGE AIRPORT PTCLDY    40  32  73 SW14      29.60F
KANKAKEE*      CLEAR     37  33  85 SW8       29.67F WCI  31
WHEELING       PTCLDY    41  32  70 SW10      29.60F
MORRIS*        CLOUDY    42  34  74 SW10      29.63F
ROMEOVILLE*    CLOUDY    42  33  71 SW14      29.63F
NORTHERLY ISL    N/A     44  32  62 S9          N/A
$$

LMZ740>746-210800-
SOUTHERN LAKE MICHIGAN

STATION/POSITION SKY/WX   TEMP    WIND        PRES    VSBY  WAVE
                          AIR SEA DIR/SP/G                  HT/PER
                          (F)     (DEG/KT/KT) (MB)    (MI)  (FT/S)
HARRISON CRIB              44     230/ 18/ 25   N/A
BURNHAM HARBOR             44     250/ 11       N/A
CALUMET HARBOR             44     220/  9/ 14   N/A
BURNS HARBOR               45     230/ 13/ 19 1004.4S
MICHIGAN CITY              44     210/ 22/ 24   N/A
MICHIGAN CITY 6N           45 45  250/ 17/ 25   N/A           4/ 4
$$

ILZ025>027-034>036-040-047-049-050-058-095>099-210800-
WEST-CENTRAL ILLINOIS

CITY           SKY/WX    TMP DP  RH WIND       PRES   REMARKS
QUINCY         CLEAR     43  27  53 W9        29.76S
GALESBURG*     CLEAR     39  28  66 SW5       29.70F
MACOMB*        CLEAR     39  31  72 W12       29.74F WCI  32
JACKSONVILLE*  CLEAR     44  33  63 SW10      29.76S
PITTSFIELD*    CLEAR     47  29  51 SW12      29.78S
$$

ILZ028>032-037-038-041>044-048-051>054-059>061-210800-
CENTRAL ILLINOIS

CITY           SKY/WX    TMP DP  RH WIND       PRES   REMARKS
PONTIAC        CLEAR     38  35  86 W9        29.70R WCI  32
BLOOMINGTON    CLEAR     42  32  68 SW13      29.70F
DECATUR        FAIR      46  32  58 W14G22    29.74F
PEORIA         CLEAR     45  29  53 W7        29.71R
LACON*         CLEAR     41  30  64 W7        29.70S
LINCOLN*       CLEAR     44  32  64 SW5       29.73S
SPRINGFIELD    CLEAR     44  32  62 SW10      29.75F
TAYLORVILLE    CLEAR     45  32  61 SW13      29.76F
$$

ILZ033-039-045-046-055>057-062-063-210800-
EAST-CENTRAL ILLINOIS

CITY           SKY/WX    TMP DP  RH WIND       PRES   REMARKS
CHAMPAIGN      CLEAR     42  34  73 SW16      29.72F
DANVILLE*      CLEAR     42  35  76 SW14      29.69F
RANTOUL*       CLEAR     42  36  80 SW13      29.70F
MATTOON        CLEAR     44  33  65 SW8       29.76F
PARIS*         CLEAR     43  36  77 SW13      29.76F
$$

ILZ079-100>102-210800-
SOUTHWEST ILLINOIS

CITY           SKY/WX    TMP DP  RH WIND       PRES   REMARKS
ALTON          CLEAR     45  28  50 SW10      29.81F
BELLEVILLE     CLEAR     42  34  71 SW6       29.82F
CAHOKIA*       CLEAR     47  32  56 SW6       29.83S
SPARTA*        CLEAR     46  32  58 SW8       29.87S
$$

ILZ064>066-069>071-074>076-080>082-084>086-088>090-092>094-210800-
SOUTH-CENTRAL ILLINOIS

CITY           SKY/WX    TMP DP  RH WIND       PRES   REMARKS
CARBONDALE     CLEAR     43  34  70 SW6       29.87F
EFFINGHAM*     CLEAR     45  32  61 S7        29.81S
MARION         CLEAR     43  36  75 SW5       29.88F
MT. VERNON     CLEAR     43  32  65 SW8       29.85S
CENTRALIA*     CLEAR     45  32  61 SW9       29.83S
SALEM*         CLEAR     46  35  63 SW8       29.83S
METROPOLIS*    CLEAR     45  41  85 SW3       29.90S
$$

ILZ067-068-072-073-078-083-087-091-210800-
SOUTHEAST ILLINOIS

CITY           SKY/WX    TMP DP  RH WIND       PRES   REMARKS
LAWRENCEVILLE  CLEAR     45  36  70 SW10      29.82F
FLORA*         CLEAR     43  35  73 SW8       29.83F
FAIRFIELD*     CLEAR     43  37  78 S3        29.83F
HARRISBURG*    CLEAR     45  36  71 SW5       29.89S
ROBINSON*      CLEAR     45  36  70 SW12      29.81F
$$

ABBREVIATIONS USED IN REMARKS
   TC - TEMPERATURE IN CELSIUS
  WCI - WIND CHILL INDEX
   HX - HEAT INDEX
  VSB - VISIBILITY
$$




USA.gov is the U.S. government's official web portal to all federal, state and local government web resources and services.